Regional Weather Roundup
Issued by NWS Jackson, KY

Home | Current Version | Previous Version | Graphics & Text | Print | Product List | Glossary On
Versions: 1 2 3 4 5 6 7 8 9 10 11 12 13 14 15 16 17 18 19 20 21 22 23 24 25 26 27 28 29 30 31 32 33 34 35 36 37 38 39 40 41 42 43 44 45 46 47 48 49 50
380
ASUS43 KJKL 280210
RWRJKL

EAST KENTUCKY HOURLY WEATHER ROUNDUP
NATIONAL WEATHER SERVICE JACKSON KY
1000 PM EDT MON MAR 27 2017

NOTE: "FAIR" INDICATES FEW OR NO CLOUDS BELOW 12,000 FEET WITH
NO SIGNIFICANT WEATHER AND/OR OBSTRUCTIONS TO VISIBILITY.

* THESE REPORTS ARE NOT UNDER NWS QUALITY CONTROL AND MAY NOT
  REPORT WEATHER SUCH AS PRECIPITATION AND FOG.

KYZ079-080-083-085-087-088-110-112-115-119-120-280300
...EASTERN KENTUCKY...

CITY           SKY/WX    TMP DP  RH WIND       PRES   REMARKS
JACKSON        RAIN      55  53  93 W6        29.97F FOG
LONDON         CLOUDY    57  53  86 CALM      29.96S
SOMERSET*      CLOUDY    54  54 100 CALM      29.94F
MONTICELLO*    LGT RAIN  57  56  96 W15       29.97R
WILLIAMSBURG*  CLOUDY    55  55 100 N3        29.95S
MIDDLESBORO*   RAIN      59  57  92 E3        29.98S
HARLAN APT*    CLOUDY    55  54  94 SW6       29.99R
PIKE CO APT*   CLOUDY    62  54  75 CALM      29.91S
BIG SANDY APT* CLOUDY    59  58  96 W14G20    29.96R
MOREHEAD APT*  LGT RAIN  55  54  94 S7        29.96R
$$

KYZ035-036-041-042-044-050-067-078-099-280300
...CENTRAL KENTUCKY...

CITY           SKY/WX    TMP DP  RH WIND       PRES   REMARKS
MT STERLING*   LGT RAIN  55  54  94 S5        29.93F
FLEMING/MASON* LGT RAIN  57  56  95 SW7       29.91S
DANVILLE*      DRIZZLE   54  54 100 S10       29.88F
LEXINGTON      CLOUDY    56  53  90 S8        29.89F
FRANKFORT      CLOUDY    56  53  90 SE5       29.85R
LOUISVILLE     CLOUDY    58  54  86 S8        29.85R
LEBANON*         N/A     57  55  94 S15G23    29.84F
GLASGOW*       DRIZZLE  N/A N/A N/A SE5       29.86S
BOWLING GREEN  CLOUDY    59  56  89 S3        29.86R
$$

KYZ091>093-OHZ055-061-077-WVZ005-015-034-035-042-280300
...SOUTHERN OHIO/WEST VIRGINIA...

CITY           SKY/WX    TMP DP  RH WIND       PRES   REMARKS
COVINGTON      LGT RAIN  58  57  97 S8        29.84F
COLUMBUS       CLOUDY    61  52  72 NE3       29.86S
DAYTON         RAIN      58  54  86 SE12      29.86S
WILMINGTON     LGT RAIN  59  56  89 E5        29.85S
HUNTINGTON     TSTM      59  56  89 E6        29.89F
CHARLESTON     CLOUDY    60  56  86 CALM      29.89F
PINEVILLE*     CLOUDY    58  51  75 MISG      30.00R
BECKLEY        PTCLDY    58  51  78 SE7       29.97R
LOGAN CO APT*  CLOUDY    63  54  72 CALM      29.92S
$$

VAZ002-007-008-TNZ017-027-036-066-071-280300
...SOUTHWEST VIRGINIA/EAST TENNESSEE...

CITY           SKY/WX    TMP DP  RH WIND       PRES   REMARKS
WISE*          CLOUDY    64  46  52 S6        29.97S
JONESVILLE*    RAIN      59  55  88 W12G22    30.00R
ABINGDON*      MOCLDY    63  50  63 CALM      29.95S
BRISTOL        MOCLDY    61  52  72 CALM      29.93R
MORRISTOWN*    MOCLDY    63  59  88 W15G24    30.00R FOG
SEVIERVILLE*   MOCLDY    57  54  88 W10       29.98R
KNOXVILLE      LGT RAIN  61  57  87 S8        29.95F
LAFOLLETTE*    MOCLDY    59  57  94 CALM      29.96F
OAK RIDGE      CLOUDY    59  57  93 CALM      29.95F
CROSSVILLE     CLOUDY    57  53  86 N9        29.96R
NASHVILLE      CLOUDY    59  57  93 NE6       29.87R
$$

...KEY TO REMARKS...
VSB - VISIBILITY IN MILES
WCI - WIND CHILL INDEX
HX  - HEAT INDEX

$$




USA.gov is the U.S. government's official web portal to all federal, state and local government web resources and services.